Weather History for KOPM - October, 2012

Change the Weather History Date:

Monday, October 8, 2012

  Actual Average Record
Temperature  
Mean Temperature 74 °F -  
Max Temperature 77 °F - - ()
Min Temperature 71 °F - - ()
Cooling Degree Days 9    
Growing Degree Days 24 (Base 50)    
Moisture  
Dew Point 66 °F    
Average Humidity 79    
Maximum Humidity 83    
Minimum Humidity 73    
Precipitation  
Precipitation 0.00 in - - ()
Sea Level Pressure  
Sea Level Pressure 30.08 in    
Wind  
Wind Speed 12 mph (North)    
Max Wind Speed 20 mph    
Max Gust Speed 26 mph    
Visibility 9 miles    
Events      
T = Trace of Precipitation, MM = Missing Value Source: NWS Daily Summary

Daily Weather History Graph

Daily Weather History Graph

Search for Another Location

Airport or City:

Trip Planner

Search our weather history database for the weather conditions in past years. The results will help you decide how hot, cold, wet, or windy it might be!

Date:

Astronomy

Oct. 08, 2012 Rise Set
Actual Time 7:23 AM CDT 7:05 PM CDT
Civil Twilight 7:00 AM CDT 7:29 PM CDT
Nautical Twilight 6:33 AM CDT 7:56 PM CDT
Astronomical Twilight 6:06 AM CDT 8:22 PM CDT
Moon 12:40 AM CDT (10/8) 2:22 PM CDT (10/8)
Length of Visible Light 12h 28m
Length of Day
11h 42m
Last Quarter, 46% of the Moon is Illuminated
Oct 8
Last Quarter
Oct 15
New
Oct 21
First Quarter
Oct 29
Full
Nov 6
Last Quarter

Hourly Weather History & Observations

Time (CDT) Temp. Dew Point Humidity Pressure Visibility Wind Dir Wind Speed Gust Speed Precip Events Conditions
12:15 AM 75.2 °F 66.2 °F 73% 30.06 in 10.0 mi North 12.7 mph 18.4 mph N/A   Mostly Cloudy
12:35 AM 75.2 °F 66.2 °F 73% 30.06 in 10.0 mi North 10.4 mph 18.4 mph N/A   Mostly Cloudy
12:55 AM 73.4 °F 66.2 °F 78% 30.06 in 10.0 mi North 11.5 mph - N/A   Overcast
1:15 AM 75.2 °F 66.2 °F 73% 30.06 in 10.0 mi North 11.5 mph - N/A   Overcast
1:35 AM 75.2 °F 66.2 °F 73% 30.06 in 10.0 mi North 11.5 mph 18.4 mph N/A   Overcast
1:55 AM 73.4 °F 66.2 °F 78% 30.06 in 10.0 mi North 13.8 mph 23.0 mph N/A   Overcast
2:15 AM 71.6 °F 66.2 °F 83% 30.06 in 10.0 mi North 13.8 mph 21.9 mph N/A   Overcast
2:35 AM 71.6 °F 64.4 °F 78% 30.07 in 10.0 mi North 13.8 mph 20.7 mph N/A   Overcast
2:55 AM 71.6 °F 64.4 °F 78% 30.07 in 10.0 mi North 13.8 mph 26.5 mph N/A   Mostly Cloudy
3:15 AM 71.6 °F 64.4 °F 78% 30.07 in 10.0 mi North 12.7 mph 19.6 mph N/A   Overcast
3:35 AM 71.6 °F 64.4 °F 78% 30.06 in 10.0 mi NNW 11.5 mph 19.6 mph N/A   Overcast
3:55 AM 71.6 °F 64.4 °F 78% 30.06 in 10.0 mi North 13.8 mph 20.7 mph N/A   Overcast
4:15 AM 71.6 °F 64.4 °F 78% 30.05 in 10.0 mi North 16.1 mph 24.2 mph N/A   Mostly Cloudy
4:55 AM 71.6 °F 64.4 °F 78% 30.04 in 10.0 mi North 17.3 mph 24.2 mph N/A   Scattered Clouds
5:15 AM 71.6 °F 64.4 °F 78% 30.04 in 10.0 mi North 15.0 mph 23.0 mph N/A   Scattered Clouds
5:35 AM 71.6 °F 64.4 °F 78% 30.04 in 9.0 mi North 16.1 mph 26.5 mph N/A   Scattered Clouds
5:55 AM 71.6 °F 64.4 °F 78% 30.06 in 10.0 mi North 15.0 mph 21.9 mph N/A   Mostly Cloudy
6:15 AM 71.6 °F 64.4 °F 78% 30.07 in 10.0 mi North 13.8 mph 25.3 mph N/A   Overcast
6:35 AM 71.6 °F 66.2 °F 83% 30.07 in 10.0 mi North 11.5 mph 20.7 mph N/A   Overcast
6:55 AM 71.6 °F 64.4 °F 78% 30.08 in 10.0 mi North 11.5 mph 18.4 mph N/A   Overcast
7:15 AM 71.6 °F 64.4 °F 78% 30.09 in 10.0 mi North 11.5 mph 21.9 mph N/A   Overcast
7:35 AM 71.6 °F 64.4 °F 78% 30.10 in 10.0 mi North 11.5 mph 18.4 mph N/A   Overcast
7:55 AM 71.6 °F 64.4 °F 78% 30.10 in 9.0 mi North 10.4 mph 18.4 mph N/A   Overcast
8:15 AM 71.6 °F 66.2 °F 83% 30.11 in 9.0 mi North 9.2 mph 16.1 mph N/A   Overcast
8:35 AM 71.6 °F 66.2 °F 83% 30.11 in 9.0 mi North 9.2 mph 20.7 mph N/A   Overcast
8:55 AM 71.6 °F 66.2 °F 83% 30.12 in 9.0 mi North 10.4 mph 18.4 mph N/A   Overcast
9:15 AM 71.6 °F 66.2 °F 83% 30.12 in 9.0 mi North 13.8 mph - N/A   Overcast
9:55 AM 71.6 °F 64.4 °F 78% 30.14 in 10.0 mi North 11.5 mph 17.3 mph N/A   Overcast
10:15 AM 71.6 °F 64.4 °F 78% 30.14 in 9.0 mi North 10.4 mph - N/A   Overcast
10:35 AM 71.6 °F 64.4 °F 78% 30.14 in 9.0 mi North 8.1 mph 15.0 mph N/A   Overcast
10:55 AM 71.6 °F 66.2 °F 83% 30.14 in 9.0 mi North 9.2 mph - N/A   Overcast
11:15 AM 71.6 °F 66.2 °F 83% 30.15 in 8.0 mi North 9.2 mph 16.1 mph N/A   Overcast
11:35 AM 71.6 °F 66.2 °F 83% 30.14 in 8.0 mi NNW 11.5 mph - N/A   Overcast
11:55 AM 71.6 °F 66.2 °F 83% 30.14 in 8.0 mi North 11.5 mph - N/A   Overcast
12:15 PM 71.6 °F 66.2 °F 83% 30.14 in 8.0 mi North 10.4 mph 18.4 mph N/A   Overcast
12:35 PM 71.6 °F 66.2 °F 83% 30.14 in 8.0 mi North 11.5 mph - N/A   Overcast
12:55 PM 71.6 °F 66.2 °F 83% 30.13 in 8.0 mi North 11.5 mph 18.4 mph N/A   Overcast
1:15 PM 71.6 °F 66.2 °F 83% 30.12 in 8.0 mi North 11.5 mph 18.4 mph N/A   Overcast
1:35 PM 71.6 °F 66.2 °F 83% 30.11 in - North 11.5 mph 17.3 mph N/A   Overcast
1:55 PM 71.6 °F 64.4 °F 78% 30.10 in 8.0 mi North 13.8 mph - N/A   Overcast
2:15 PM 71.6 °F 66.2 °F 83% 30.09 in 8.0 mi North 12.7 mph 20.7 mph N/A   Overcast
2:35 PM 71.6 °F 64.4 °F 78% 30.09 in 8.0 mi North 11.5 mph 18.4 mph N/A   Overcast
3:15 PM 71.6 °F 66.2 °F 83% 30.08 in 8.0 mi North 6.9 mph 18.4 mph N/A   Overcast
3:35 PM 71.6 °F 66.2 °F 83% 30.08 in 8.0 mi North 9.2 mph 15.0 mph N/A   Overcast
3:55 PM 71.6 °F 64.4 °F 78% 30.07 in 8.0 mi North 11.5 mph - N/A   Overcast
4:15 PM 71.6 °F 66.2 °F 83% 30.06 in 8.0 mi North 9.2 mph - N/A   Overcast
4:35 PM 71.6 °F 66.2 °F 83% 30.06 in 8.0 mi North 8.1 mph 15.0 mph N/A   Overcast
4:55 PM 71.6 °F 66.2 °F 83% 30.06 in 8.0 mi Variable 6.9 mph 15.0 mph N/A   Overcast
5:15 PM 71.6 °F 66.2 °F 83% 30.06 in 9.0 mi North 10.4 mph - N/A   Overcast
5:35 PM 71.6 °F 66.2 °F 83% 30.06 in 9.0 mi North 9.2 mph 16.1 mph N/A   Overcast
5:55 PM 71.6 °F 66.2 °F 83% 30.06 in 9.0 mi North 9.2 mph 15.0 mph N/A   Overcast
6:15 PM 73.4 °F 66.2 °F 78% 30.06 in 9.0 mi North 8.1 mph - N/A   Overcast
6:35 PM 73.4 °F 66.2 °F 78% 30.06 in 9.0 mi North 9.2 mph - N/A   Overcast
6:55 PM 73.4 °F 66.2 °F 78% 30.06 in 10.0 mi NNE 8.1 mph 15.0 mph N/A   Overcast
7:15 PM 73.4 °F 66.2 °F 78% 30.06 in 10.0 mi North 8.1 mph - N/A   Overcast
7:35 PM 73.4 °F 66.2 °F 78% 30.06 in 10.0 mi NNE 9.2 mph - N/A   Overcast
8:15 PM 75.2 °F 68.0 °F 78% 30.07 in 10.0 mi NNE 8.1 mph 15.0 mph N/A   Overcast
9:15 PM 75.2 °F 66.2 °F 73% 30.07 in - NE 17.3 mph - N/A   Overcast
9:35 PM 75.2 °F 68.0 °F 78% 30.07 in 10.0 mi NE 18.4 mph - N/A   Overcast
9:55 PM 75.2 °F 66.2 °F 73% 30.07 in 10.0 mi NE 18.4 mph - N/A   Overcast
10:15 PM 77.0 °F 68.0 °F 74% 30.07 in 10.0 mi NE 17.3 mph - N/A   Overcast
10:35 PM 77.0 °F 68.0 °F 74% 30.07 in 10.0 mi NE 18.4 mph - N/A   Overcast
10:55 PM 77.0 °F 68.0 °F 74% 30.07 in 10.0 mi NE 18.4 mph - N/A   Overcast
11:15 PM 77.0 °F 68.0 °F 74% 30.07 in 10.0 mi ENE 18.4 mph - N/A   Overcast
11:35 PM 77.0 °F 68.0 °F 74% 30.07 in 10.0 mi NE 19.6 mph - N/A   Overcast
11:55 PM 77.0 °F 68.0 °F 74% 30.06 in 10.0 mi NE 19.6 mph - N/A   Overcast